Wind_Speed
55 57 59 60 61 62 64 65 67 69 70 72 73 75 77 79 80 81 83 84 85 86 86 86 86 86 86 86 86 85 85 85 84 79 78 79 80 81 81 82 83 84 85
58 59 61 62 63 64 66 68 69 71 73 74 76 77 79 80 81 83 84 85 85 86 86 86 85 85 85 84 83 81 80 79 78 75 70 70 71 73 74 74 75 76 79
60 62 63 64 65 67 68 70 72 73 74 76 78 79 80 81 82 83 84 85 85 85 84 84 83 83 82 80 78 76 74 72 71 69 66 65 65 67 67 67 67 68 70
63 64 65 66 68 69 71 72 74 75 76 77 78 79 80 82 83 84 84 84 83 83 82 82 81 79 78 75 73 71 69 67 67 67 65 63 63 64 65 64 62 62 64
65 66 67 69 70 71 73 74 75 76 77 78 79 80 81 82 83 83 82 81 81 80 80 78 77 75 73 71 69 67 66 66 66 66 64 63 63 63 63 62 60 58 58
66 67 68 70 71 73 74 75 76 76 77 78 80 81 81 82 82 81 80 79 78 77 76 74 72 70 69 68 67 66 66 66 65 64 62 61 60 60 59 58 57 54 52
67 68 69 71 72 73 74 75 76 77 78 79 80 80 80 80 79 78 78 76 75 74 72 70 68 67 67 66 65 64 64 64 64 63 61 59 57 56 55 53 51 49 47
67 68 70 71 72 73 75 75 76 77 78 79 79 79 78 77 77 76 75 73 72 71 69 68 66 66 65 64 63 63 62 62 62 61 59 57 55 53 52 50 47 44 42
67 69 70 72 73 74 75 75 76 77 78 78 77 77 76 75 75 73 72 71 69 68 67 66 65 65 64 64 64 63 62 61 60 59 57 55 53 51 50 48 46 44 41
67 69 71 72 73 73 74 75 76 77 77 76 76 75 74 72 72 71 71 70 68 67 65 64 64 64 64 64 64 63 62 61 59 57 54 52 51 49 47 47 45 43 41
68 69 70 71 72 73 75 75 76 76 76 75 74 72 71 70 70 70 69 68 66 65 64 63 63 64 64 64 65 64 64 62 60 57 53 50 48 46 44 43 43 42 41
69 70 71 72 73 74 74 74 74 75 74 72 71 69 68 68 68 68 67 67 66 64 63 63 63 64 64 65 65 65 64 63 60 56 52 49 46 43 42 42 41 41 41
69 70 71 72 72 73 73 73 73 72 71 69 68 68 67 67 67 67 66 66 65 64 63 63 63 64 65 65 66 66 64 62 59 54 50 47 44 42 41 40 41 41 42
70 71 71 72 72 72 73 72 71 69 68 68 67 67 67 67 66 66 66 65 64 64 64 64 64 65 66 65 65 65 63 60 56 51 47 44 42 40 40 40 39 40 40
71 71 71 71 72 71 71 69 68 67 67 67 67 67 67 67 66 66 66 65 65 65 65 65 65 66 66 65 64 63 61 58 53 49 45 42 40 39 39 39 39 39 39
71 71 71 71 70 69 68 67 67 67 67 67 68 68 68 68 67 66 66 66 66 67 67 67 67 67 66 65 63 60 57 54 50 46 43 41 38 37 37 38 38 38 37
70 70 69 68 68 67 66 66 66 67 67 68 69 70 70 68 67 67 67 67 68 69 69 68 68 67 65 63 60 57 54 50 46 44 41 39 37 36 35 35 36 36 35
68 68 67 66 66 66 66 67 67 67 68 69 70 70 70 69 68 68 69 70 70 70 70 69 68 67 64 61 57 54 50 47 44 41 40 37 35 34 33 33 34 34 33
66 66 66 66 66 66 67 67 68 69 69 70 70 70 70 69 69 69 70 72 72 72 71 70 68 65 62 57 54 50 46 43 41 39 38 35 33 32 32 32 32 32 32
64 65 65 66 66 67 68 68 69 70 70 70 70 70 70 70 70 71 72 74 74 74 72 69 66 63 58 54 50 46 43 40 38 36 35 33 32 31 30 30 30 30 29
64 65 65 66 67 67 68 69 70 70 70 70 70 70 71 71 72 73 74 74 74 72 70 66 62 58 54 50 46 43 40 37 35 34 32 31 30 29 29 29 29 28 27
65 65 66 66 67 68 68 69 70 70 70 70 70 71 72 73 74 74 73 72 71 69 66 62 58 54 50 46 42 39 36 34 32 30 29 28 28 28 27 27 27 27 26
65 66 67 67 67 68 68 69 69 69 69 70 70 71 72 73 73 72 71 69 66 63 60 56 52 47 44 41 38 35 33 31 29 27 26 26 25 25 26 26 26 25 25
66 66 67 67 68 68 68 68 68 69 69 69 70 71 71 70 69 67 65 63 59 56 51 46 42 40 38 36 34 32 30 28 26 24 23 23 23 23 23 24 24 24 24
66 66 67 67 68 68 68 68 68 68 68 68 68 68 67 65 63 62 59 56 52 47 42 38 35 33 32 31 30 29 27 25 23 21 21 20 20 21 21 22 22 22 22
66 67 67 67 67 67 67 67 66 66 65 65 64 63 60 58 57 55 53 49 44 39 34 31 29 28 28 28 27 26 24 22 20 19 18 18 18 19 19 20 21 21 21
Wind_Direction
284 285 286 288 289 290 291 292 294 295 296 297 298 298 299 300 300 301 301 301 301 301 300 300 300 300 299 299 298 297 295 294 292 290 286 283 280 276 273 270 267 265 262
285 286 287 288 290 291 292 293 294 295 296 297 298 299 300 300 301 302 302 302 302 302 302 302 302 302 301 301 300 299 297 296 294 293 290 286 283 280 277 274 270 267 264
286 287 288 289 290 291 292 294 295 296 297 298 299 299 301 301 302 302 302 302 303 303 303 303 303 303 302 302 301 299 298 297 296 295 293 290 287 285 282 278 275 272 268
287 288 289 290 291 292 293 294 295 296 297 298 299 300 301 301 302 302 302 303 303 304 304 304 304 304 303 302 301 300 299 298 297 296 295 293 290 287 285 282 279 276 273
288 289 290 290 291 293 294 294 295 297 298 299 299 300 301 301 302 302 302 303 304 304 304 304 304 304 303 302 302 301 300 300 299 298 297 295 292 289 287 285 282 278 275
289 290 290 291 292 293 294 295 296 297 298 299 299 300 301 301 301 302 302 304 304 304 304 304 304 304 303 303 303 302 302 302 301 300 299 297 294 292 289 287 284 281 277
289 289 290 291 292 293 293 295 296 297 298 298 299 299 300 300 301 302 303 303 304 304 304 304 304 303 303 303 303 304 304 304 304 303 302 300 297 294 292 289 287 284 281
288 289 290 291 291 292 294 295 296 296 297 298 298 299 299 300 301 301 302 303 304 304 304 304 304 304 304 304 305 305 305 305 305 305 304 301 299 296 293 292 289 285 282
288 288 289 290 291 292 293 294 295 296 296 297 297 298 299 299 300 301 302 303 304 304 305 305 305 305 305 306 306 307 307 306 306 305 304 302 299 297 294 292 289 286 282
287 287 288 289 291 292 292 293 294 295 295 296 297 297 298 299 300 301 302 303 304 304 305 305 305 306 307 307 308 308 308 308 307 305 303 300 298 296 293 291 289 287 283
286 287 288 289 290 291 292 293 293 294 294 295 296 297 297 298 299 300 302 303 304 304 305 305 306 306 307 308 309 310 310 310 308 306 304 301 298 295 293 291 289 287 285
286 287 288 289 290 290 291 291 292 293 294 295 295 296 297 298 299 301 302 302 303 304 305 305 306 307 308 309 310 311 311 310 309 307 305 302 298 295 294 293 291 290 288
286 287 288 289 289 290 290 291 292 293 293 293 294 296 297 298 300 301 301 302 303 304 304 305 306 307 308 309 310 311 311 310 308 306 304 302 299 296 295 294 293 292 290
286 287 287 288 288 289 290 291 291 292 292 293 294 296 297 299 300 300 301 301 302 302 303 304 306 307 307 308 309 309 309 308 307 305 303 301 299 297 296 295 294 292 291
285 286 287 287 288 289 290 290 290 291 292 294 295 297 298 299 299 299 300 300 300 301 302 303 305 306 306 306 307 307 307 306 305 303 302 301 299 298 298 297 296 295 293
285 285 286 287 288 288 289 289 290 291 292 294 295 297 298 299 299 299 299 299 299 300 301 302 303 304 304 304 304 304 304 303 302 301 300 300 299 299 299 299 299 298 296
284 285 286 286 287 287 288 289 290 291 293 295 296 297 298 298 298 298 298 298 298 299 300 301 302 302 301 301 301 301 301 300 298 298 298 299 299 300 300 301 301 301 300
284 285 285 286 286 287 288 289 291 292 293 294 296 297 297 297 296 296 296 297 298 298 299 299 299 299 299 298 297 297 297 296 295 295 296 297 298 300 302 303 304 304 303
283 284 285 285 286 287 288 289 291 292 293 294 295 295 295 295 296 296 296 296 297 297 297 297 297 296 295 293 293 293 293 292 291 292 294 295 296 299 302 304 306 307 306
282 283 284 285 286 287 288 289 290 292 293 294 294 294 295 295 295 295 295 295 296 296 295 295 293 292 290 289 288 288 288 288 288 289 291 293 295 298 302 305 307 308 308
282 283 284 285 286 287 288 290 291 292 293 293 294 294 294 295 295 295 295 295 295 295 294 292 290 288 285 283 282 282 283 284 284 285 288 292 294 298 302 305 307 309 310
282 283 284 285 286 288 289 290 291 292 292 293 293 294 294 295 296 296 296 296 295 294 291 289 287 283 279 277 276 276 277 278 280 282 286 290 294 298 302 305 307 309 310
283 284 285 286 287 288 289 290 291 291 292 292 293 294 295 296 297 297 297 297 296 293 290 287 282 276 272 269 268 268 270 272 275 278 283 289 294 299 302 305 307 309 311
283 284 286 286 287 288 289 289 290 291 291 292 293 295 296 297 298 298 299 298 296 293 289 283 275 269 264 261 260 261 263 266 269 274 281 287 293 298 303 306 307 308 310
283 284 285 286 287 288 288 289 290 291 291 292 294 296 297 298 299 300 299 298 296 293 287 278 269 261 256 253 251 253 256 259 264 270 277 285 291 297 302 306 308 309 310
284 284 285 286 286 287 288 289 290 291 292 293 295 297 297 298 299 300 300 299 296 291 283 272 262 253 248 244 244 246 249 252 258 265 273 282 291 297 302 306 309 310 311
Height
5730 5728 5725 5722 5718 5715 5711 5707 5702 5697 5692 5686 5680 5674 5667 5660 5652 5644 5636 5628 5619 5610 5602 5594 5585 5577 5568 5560 5551 5543 5534 5525 5521 5526 5523 5515 5510 5507 5506 5505 5506 5507 5509
5716 5713 5709 5706 5703 5699 5695 5691 5686 5680 5674 5668 5662 5655 5648 5640 5632 5624 5616 5607 5598 5589 5580 5571 5562 5554 5546 5537 5529 5521 5512 5503 5496 5495 5497 5490 5484 5479 5477 5477 5477 5477 5479
5700 5697 5694 5690 5686 5682 5678 5673 5668 5662 5656 5649 5643 5636 5628 5620 5612 5604 5595 5586 5577 5568 5559 5550 5541 5533 5524 5516 5508 5500 5492 5485 5477 5472 5472 5468 5462 5456 5453 5452 5452 5452 5451
5684 5681 5677 5674 5669 5665 5660 5655 5649 5643 5637 5631 5623 5616 5609 5600 5592 5584 5575 5566 5557 5548 5538 5529 5521 5512 5505 5497 5490 5482 5475 5468 5460 5454 5451 5447 5442 5435 5430 5429 5431 5430 5428
5668 5664 5661 5656 5652 5647 5642 5636 5630 5625 5618 5611 5604 5596 5589 5580 5572 5564 5556 5548 5539 5529 5520 5511 5502 5494 5486 5479 5472 5465 5458 5451 5443 5437 5433 5428 5422 5415 5411 5408 5408 5409 5409
5651 5648 5643 5639 5634 5629 5623 5617 5612 5606 5599 5592 5585 5577 5569 5561 5553 5545 5537 5530 5521 5512 5503 5494 5486 5477 5470 5462 5456 5448 5441 5433 5426 5420 5415 5409 5403 5396 5392 5389 5387 5388 5390
5634 5630 5626 5621 5616 5610 5605 5599 5593 5587 5580 5573 5566 5558 5550 5542 5534 5526 5518 5511 5503 5494 5486 5478 5470 5462 5454 5448 5441 5434 5426 5417 5409 5402 5397 5391 5385 5379 5375 5372 5370 5369 5369
5617 5613 5609 5603 5598 5592 5587 5581 5575 5568 5561 5554 5547 5539 5532 5523 5515 5507 5500 5493 5486 5478 5470 5462 5454 5446 5438 5432 5426 5420 5412 5404 5395 5388 5381 5375 5369 5364 5359 5357 5355 5355 5355
5601 5596 5590 5585 5580 5574 5569 5562 5555 5549 5542 5535 5528 5521 5513 5506 5497 5490 5482 5476 5470 5462 5455 5447 5438 5431 5424 5416 5410 5405 5398 5390 5382 5374 5367 5360 5354 5349 5345 5342 5341 5340 5340
5583 5578 5572 5567 5562 5557 5550 5544 5537 5530 5523 5517 5510 5503 5496 5488 5479 5472 5465 5460 5454 5448 5441 5432 5424 5416 5409 5401 5394 5388 5382 5375 5369 5362 5355 5348 5342 5337 5332 5329 5327 5326 5325
5564 5559 5555 5550 5544 5538 5531 5525 5518 5511 5505 5499 5493 5486 5479 5472 5463 5456 5448 5443 5437 5431 5425 5418 5410 5402 5395 5387 5379 5372 5365 5359 5352 5346 5340 5335 5330 5325 5321 5317 5314 5312 5312
5545 5541 5536 5531 5525 5519 5512 5506 5499 5493 5486 5480 5474 5468 5462 5455 5448 5440 5432 5426 5421 5416 5410 5403 5396 5388 5381 5373 5365 5358 5351 5344 5337 5331 5326 5321 5317 5313 5309 5306 5303 5300 5298
5526 5522 5517 5511 5506 5500 5494 5488 5481 5475 5468 5462 5456 5451 5445 5439 5432 5424 5417 5411 5404 5399 5395 5388 5381 5373 5366 5359 5351 5344 5337 5330 5324 5318 5313 5308 5304 5300 5297 5295 5292 5289 5286
5506 5502 5497 5492 5487 5481 5475 5469 5463 5457 5450 5444 5439 5434 5428 5422 5416 5409 5402 5396 5390 5383 5378 5373 5366 5359 5351 5344 5338 5330 5323 5316 5310 5305 5301 5297 5293 5289 5285 5283 5280 5278 5275
5487 5482 5478 5473 5467 5462 5456 5451 5445 5440 5433 5427 5422 5415 5410 5405 5399 5392 5387 5381 5374 5368 5362 5357 5351 5344 5337 5330 5323 5316 5310 5303 5298 5293 5289 5286 5282 5278 5274 5271 5268 5265 5262
5467 5463 5458 5454 5448 5443 5438 5433 5427 5422 5416 5410 5404 5398 5392 5387 5381 5375 5369 5363 5357 5351 5345 5341 5335 5328 5322 5315 5309 5303 5297 5291 5286 5282 5278 5275 5271 5268 5264 5261 5257 5254 5250
5447 5443 5439 5435 5430 5425 5420 5415 5410 5405 5399 5393 5386 5380 5374 5369 5363 5357 5351 5345 5339 5333 5327 5323 5317 5311 5305 5299 5294 5289 5285 5279 5275 5272 5268 5264 5261 5258 5254 5251 5247 5243 5239
5428 5424 5420 5416 5411 5407 5402 5397 5392 5387 5382 5376 5369 5363 5356 5351 5345 5338 5332 5325 5321 5315 5309 5304 5298 5292 5287 5283 5279 5275 5272 5268 5264 5261 5258 5254 5251 5248 5245 5241 5237 5233 5230
5409 5405 5401 5397 5393 5388 5384 5379 5374 5369 5364 5358 5352 5345 5339 5332 5326 5320 5312 5306 5301 5295 5290 5284 5279 5274 5270 5267 5264 5261 5259 5256 5253 5251 5248 5245 5242 5239 5236 5232 5228 5224 5220
5390 5386 5382 5378 5374 5370 5365 5360 5355 5350 5345 5339 5333 5327 5320 5314 5308 5301 5294 5286 5279 5274 5268 5263 5259 5255 5252 5250 5249 5247 5246 5244 5242 5240 5238 5235 5233 5230 5227 5224 5220 5216 5213
5372 5368 5364 5360 5356 5351 5347 5342 5336 5331 5325 5320 5313 5306 5300 5294 5287 5280 5273 5265 5258 5251 5245 5241 5238 5236 5235 5234 5234 5234 5234 5233 5231 5230 5228 5226 5224 5221 5218 5215 5212 5208 5205
5353 5349 5345 5341 5337 5332 5327 5322 5317 5311 5306 5300 5294 5286 5279 5272 5265 5258 5250 5242 5235 5229 5223 5220 5218 5218 5218 5218 5220 5221 5221 5221 5221 5220 5219 5217 5215 5213 5210 5207 5204 5201 5198
5334 5330 5326 5322 5317 5313 5308 5303 5297 5292 5286 5280 5274 5267 5260 5252 5244 5236 5228 5220 5213 5206 5201 5199 5198 5199 5201 5203 5206 5208 5209 5210 5211 5210 5210 5208 5206 5204 5202 5199 5197 5194 5191
5315 5311 5307 5302 5298 5293 5288 5283 5278 5272 5267 5260 5254 5247 5240 5232 5224 5216 5207 5199 5192 5186 5182 5180 5180 5183 5186 5189 5193 5196 5198 5200 5201 5201 5201 5200 5199 5197 5195 5192 5190 5187 5184
5296 5292 5288 5283 5278 5274 5269 5264 5258 5253 5247 5241 5235 5228 5221 5213 5206 5198 5190 5182 5176 5170 5167 5166 5167 5169 5173 5177 5181 5184 5187 5190 5191 5192 5193 5192 5191 5190 5188 5186 5183 5181 5178
5276 5272 5268 5263 5259 5254 5249 5244 5239 5234 5229 5223 5217 5210 5204 5197 5190 5182 5175 5168 5162 5157 5155 5154 5156 5159 5162 5167 5171 5175 5178 5180 5183 5184 5185 5185 5184 5183 5181 5179 5177 5175 5172